Weather History for Ukiah, CA

Change the Weather History Date:

Saturday, August 3, 2013

  Actual Average Record
Temperature  
Mean Temperature 74 °F 74 °F  
Max Temperature 93 °F 94 °F 106 °F (1987)
Min Temperature 54 °F 55 °F 41 °F (1942)
Degree Days  
Heating Degree Days 0 0  
Month to date heating degree days 0  
Since 1 June heating degree days 33  
Since 1 July heating degree days 1  
Cooling Degree Days 8 9  
Month to date cooling degree days 27  
Year to date cooling degree days 470  
Since 1 June cooling degree days 418  
Growing Degree Days 22 (Base 50)    
Moisture  
Dew Point 50 °F    
Average Humidity 52    
Maximum Humidity 83    
Minimum Humidity 21    
Precipitation  
Precipitation 0.00 in 0.00 in 0.00 in (2014)
Month to date precipitation 0.00 0.00  
Year to date precipitation 5.61 23.42  
Since 1 July precipitation 0.03 0.04  
Snow  
Snow 0.00 in - - ()
Month to date snowfall 0.0  
Since 1 June snowfall 0.0  
Since 1 July snowfall 0.0  
Snow Depth -    
Sea Level Pressure  
Sea Level Pressure 29.89 in    
Wind  
Wind Speed 2 mph (South)    
Max Wind Speed 13 mph    
Max Gust Speed 18 mph    
Visibility 10 miles    
Events      
T = Trace of Precipitation, MM = Missing Value Source: NWS Daily Summary

Daily Weather History Graph

Daily Weather History Graph

Search for Another Location

Airport:

Trip Planner

Search our weather history database for the weather conditions in past years. The results will help you decide how hot, cold, wet, or windy it might be!

Date:

Astronomy

Aug. 03, 2013 Rise Set
Actual Time 6:15 AM PDT 8:21 PM PDT
Civil Twilight 5:45 AM PDT 8:51 PM PDT
Nautical Twilight 5:09 AM PDT 9:27 PM PDT
Astronomical Twilight 4:30 AM PDT 10:06 PM PDT
Moon 3:29 AM PDT (8/3) 6:08 PM PDT (8/3)
Length of Visible Light 15h 05m
Length of Day
14h 06m
Waning Crescent, 9% of the Moon is Illuminated
Aug 3
Waning Crescent
Aug 6
New
Aug 14
First Quarter
Aug 20
Full
Aug 28
Last Quarter

Hourly Weather History & Observations

Time (PDT) Temp. Heat Index Dew Point Humidity Pressure Visibility Wind Dir Wind Speed Gust Speed Precip Events Conditions
12:56 AM 62.1 °F - 50.0 °F 65% 29.90 in 10.0 mi Calm Calm - N/A   Clear
1:56 AM 61.0 °F - 50.0 °F 67% 29.89 in 10.0 mi Calm Calm - N/A   Clear
2:56 AM 60.1 °F - 50.0 °F 69% 29.89 in 10.0 mi Calm Calm - N/A   Clear
3:56 AM 55.9 °F - 48.9 °F 77% 29.89 in 10.0 mi Calm Calm - N/A   Clear
4:56 AM 54.0 °F - 48.0 °F 80% 29.90 in 10.0 mi Calm Calm - N/A   Clear
5:56 AM 54.0 °F - 48.0 °F 80% 29.91 in 10.0 mi Calm Calm - N/A   Clear
6:56 AM 55.0 °F - 48.0 °F 77% 29.92 in 10.0 mi Calm Calm - N/A   Clear
7:56 AM 59.0 °F - 50.0 °F 72% 29.93 in 10.0 mi Calm Calm - N/A   Clear
8:56 AM 64.0 °F - 51.1 °F 63% 29.93 in 10.0 mi Calm Calm - N/A   Clear
9:56 AM 71.1 °F - 52.0 °F 51% 29.92 in 10.0 mi East 3.5 mph - N/A   Clear
10:56 AM 78.1 °F - 51.1 °F 39% 29.91 in 10.0 mi Variable 4.6 mph - N/A   Clear
11:56 AM 82.0 °F - 52.0 °F 35% 29.90 in 10.0 mi East 4.6 mph - N/A   Clear
12:56 PM 84.9 °F - 52.0 °F 32% 29.88 in 10.0 mi East 4.6 mph - N/A   Clear
1:56 PM 89.1 °F 86.9 °F 54.0 °F 30% 29.88 in 10.0 mi Calm Calm - N/A   Clear
2:56 PM 90.0 °F - 48.0 °F 24% 29.87 in 10.0 mi West 8.1 mph - N/A   Clear
3:56 PM 91.0 °F - 46.9 °F 22% 29.86 in 10.0 mi Variable 5.8 mph - N/A   Clear
4:56 PM 91.0 °F - 48.9 °F 23% 29.85 in 10.0 mi SSW 12.7 mph - N/A   Clear
5:56 PM 89.1 °F - 48.9 °F 25% 29.85 in 10.0 mi SW 6.9 mph - N/A   Clear
6:56 PM 86.0 °F - 48.0 °F 27% 29.84 in 10.0 mi WSW 8.1 mph - N/A   Clear
7:56 PM 81.0 °F - 48.0 °F 31% 29.86 in 8.0 mi NNE 4.6 mph - N/A   Clear
8:56 PM 73.9 °F - 48.9 °F 41% 29.88 in 8.0 mi Calm Calm - N/A   Clear
9:56 PM 71.1 °F - 48.0 °F 44% 29.90 in 9.0 mi Calm Calm - N/A   Clear
10:56 PM 66.9 °F - 52.0 °F 59% 29.90 in 8.0 mi Calm Calm - N/A   Clear
11:56 PM 66.9 °F - 48.0 °F 51% 29.91 in 8.0 mi Calm Calm - N/A   Clear